Location: Unspecified
(0.0000°N, 0.0000°E)
Time: 00:38:40
(UTC+00:00)

Tiangong - Pass Details

Date: 05 May 2025
Orbit: 377 x 386 km, 41.5° (Epoch: 16 May)

Event Time Altitude Azimuth Distance (km) Brightness Sun altitude
Exits shadow 04:18:56 23° 15° (NNE) 885 0.0 -23.4°
Drops below altitude 10° 04:20:22 10° 29° (NNE) 1,405 1.3 -23.1°
Sets 04:22:30 0° 36° (NE) 2,256 2.6 -22.6°
